Location: Makakahi
(40.6833°S, 175.6000°E)
Time: 06:05:05
(UTC+00:00)

DMSP F15 (USA 147) - Pass Details

Date: 07 December 2024
Orbit: 827 x 842 km, 99.1° (Epoch: 18 January)

Event Time Altitude Azimuth Distance (km) Brightness Sun altitude
Rises 09:12:14 0° 184° (S) 3,434 9.3 -14.5°
Reaches altitude 10° 09:15:35 10° 205° (SSW) 2,492 8.9 -14.9°
Maximum altitude 09:18:41 16° 239° (WSW) 2,118 8.3 -15.3°
Drops below altitude 10° 09:21:46 10° 274° (W) 2,478 8.1 -15.6°
Sets 09:25:06 0° 295° (WNW) 3,404 8.5 -16.0°
